Year,Month,Day,Hour,Minute,Value (Times are PST for windspeed in km/hr)
2007,01,10,00,00,11.10
2007,01,10,00,01,9.90
2007,01,10,00,02,10.70
2007,01,10,00,03,8.70
2007,01,10,00,04,12.10
2007,01,10,00,05,8.70
2007,01,10,00,06,10.70
2007,01,10,00,07,10.30
2007,01,10,00,08,9.80
2007,01,10,00,09,10.50
2007,01,10,00,10,8.50
2007,01,10,00,11,10.50
2007,01,10,00,12,11.30
2007,01,10,00,13,11.30
2007,01,10,00,14,14.70
2007,01,10,00,15,10.60
2007,01,10,00,16,11.20
2007,01,10,00,17,14.40
2007,01,10,00,18,12.90
2007,01,10,00,19,11.50
2007,01,10,00,20,20.20
2007,01,10,00,21,15.30
2007,01,10,00,22,17.10
2007,01,10,00,23,15.60
2007,01,10,00,24,12.70
2007,01,10,00,25,9.60
2007,01,10,00,26,13.50
2007,01,10,00,27,13.40
2007,01,10,00,28,15.00
2007,01,10,00,29,14.30
2007,01,10,00,30,14.00
2007,01,10,00,31,11.40
2007,01,10,00,32,10.30
2007,01,10,00,33,12.20
2007,01,10,00,34,20.80
2007,01,10,00,35,14.70
2007,01,10,00,36,18.50
2007,01,10,00,37,14.80
2007,01,10,00,38,17.50
2007,01,10,00,39,20.60
2007,01,10,00,40,18.30
2007,01,10,00,41,14.60
2007,01,10,00,42,17.10
2007,01,10,00,43,19.70
2007,01,10,00,44,18.20
2007,01,10,00,45,19.00
2007,01,10,00,46,20.40
2007,01,10,00,47,19.30
2007,01,10,00,48,15.00
2007,01,10,00,49,9.30
2007,01,10,00,50,7.20
2007,01,10,00,51,7.80
2007,01,10,00,52,6.30
2007,01,10,00,53,5.10
2007,01,10,00,54,6.40
2007,01,10,00,55,9.70
2007,01,10,00,56,6.10
2007,01,10,00,57,4.90
2007,01,10,00,58,6.60
2007,01,10,00,59,6.40
2007,01,10,01,00,6.00
2007,01,10,01,01,4.10
2007,01,10,01,02,4.90
2007,01,10,01,03,4.70
2007,01,10,01,04,4.30
2007,01,10,01,05,3.30
2007,01,10,01,06,3.60
2007,01,10,01,07,3.20
2007,01,10,01,08,2.60
2007,01,10,01,09,3.10
2007,01,10,01,10,2.10
2007,01,10,01,11,1.90
2007,01,10,01,12,3.30
2007,01,10,01,13,3.30
2007,01,10,01,14,4.60
2007,01,10,01,15,4.50
2007,01,10,01,16,6.20
2007,01,10,01,17,6.30
2007,01,10,01,18,6.80
2007,01,10,01,19,4.90
2007,01,10,01,20,11.90
2007,01,10,01,21,8.30
2007,01,10,01,22,8.10
2007,01,10,01,23,8.10
2007,01,10,01,24,8.10
2007,01,10,01,25,12.10
2007,01,10,01,26,9.80
2007,01,10,01,27,13.90
2007,01,10,01,28,21.60
2007,01,10,01,29,22.30
2007,01,10,01,30,17.70
2007,01,10,01,31,12.70
2007,01,10,01,32,15.00
2007,01,10,01,33,9.70
2007,01,10,01,34,8.20
2007,01,10,01,35,17.20
2007,01,10,01,36,15.30
2007,01,10,01,37,19.20
2007,01,10,01,38,11.50
2007,01,10,01,39,19.00
2007,01,10,01,40,15.40
2007,01,10,01,41,10.80
2007,01,10,01,42,17.40
2007,01,10,01,43,10.00
2007,01,10,01,44,10.00
2007,01,10,01,45,8.10
2007,01,10,01,46,8.80
2007,01,10,01,47,15.40
2007,01,10,01,48,12.00
2007,01,10,01,49,16.40
2007,01,10,01,50,16.40
2007,01,10,01,51,13.20
2007,01,10,01,52,12.80
2007,01,10,01,53,14.30
2007,01,10,01,54,10.90
2007,01,10,01,55,11.70
2007,01,10,01,56,6.60
2007,01,10,01,57,7.20
2007,01,10,01,58,5.80
2007,01,10,01,59,8.00
2007,01,10,02,00,4.80
2007,01,10,02,01,5.00
2007,01,10,02,02,3.00
2007,01,10,02,03,5.70
2007,01,10,02,04,5.70
2007,01,10,02,05,4.00
2007,01,10,02,06,2.70
2007,01,10,02,07,1.60
2007,01,10,02,08,3.30
2007,01,10,02,09,1.70
2007,01,10,02,10,1.50
2007,01,10,02,11,5.20
2007,01,10,02,12,3.10
2007,01,10,02,13,1.50
2007,01,10,02,14,0.70
2007,01,10,02,15,6.00
2007,01,10,02,16,3.60
2007,01,10,02,17,3.20
2007,01,10,02,18,2.50
2007,01,10,02,19,1.10
2007,01,10,02,20,1.20
2007,01,10,02,21,0.40
2007,01,10,02,22,1.70
2007,01,10,02,23,1.20
2007,01,10,02,24,1.10
2007,01,10,02,25,1.10
2007,01,10,02,26,0.80
2007,01,10,02,27,1.00
2007,01,10,02,28,1.50
2007,01,10,02,29,0.40
2007,01,10,02,30,0.00
2007,01,10,02,31,0.00
2007,01,10,02,32,0.70
2007,01,10,02,33,1.30
2007,01,10,02,34,1.30
2007,01,10,02,35,1.10
2007,01,10,02,36,0.50
2007,01,10,02,37,0.30
2007,01,10,02,38,0.20
2007,01,10,02,39,1.20
2007,01,10,02,40,1.80
2007,01,10,02,41,2.00
2007,01,10,02,42,2.30
2007,01,10,02,43,2.50
2007,01,10,02,44,2.80
2007,01,10,02,45,2.30
2007,01,10,02,46,2.40
2007,01,10,02,47,2.90
2007,01,10,02,48,2.90
2007,01,10,02,49,5.70
2007,01,10,02,50,6.40
2007,01,10,02,51,6.40
2007,01,10,02,52,6.40
2007,01,10,02,53,8.00
2007,01,10,02,54,8.90
2007,01,10,02,55,7.10
2007,01,10,02,56,6.50
2007,01,10,02,57,8.80
2007,01,10,02,58,6.30
2007,01,10,02,59,6.10
2007,01,10,03,00,10.10
2007,01,10,03,01,13.20
2007,01,10,03,02,7.60
2007,01,10,03,03,8.60
2007,01,10,03,04,6.50
2007,01,10,03,05,10.60
2007,01,10,03,06,12.90
2007,01,10,03,07,16.50
2007,01,10,03,08,13.80
2007,01,10,03,09,12.70
2007,01,10,03,10,13.20
2007,01,10,03,11,11.60
2007,01,10,03,12,9.70
2007,01,10,03,13,8.20
2007,01,10,03,14,6.20
2007,01,10,03,15,6.90
2007,01,10,03,16,7.80
2007,01,10,03,17,8.90
2007,01,10,03,18,8.80
2007,01,10,03,19,8.50
2007,01,10,03,20,7.30
2007,01,10,03,21,5.10
2007,01,10,03,22,4.50
2007,01,10,03,23,5.10
2007,01,10,03,24,5.60
2007,01,10,03,25,5.90
2007,01,10,03,26,2.90
2007,01,10,03,27,6.40
2007,01,10,03,28,7.80
2007,01,10,03,29,9.00
2007,01,10,03,30,10.90
2007,01,10,03,31,9.00
2007,01,10,03,32,13.80
2007,01,10,03,33,13.00
2007,01,10,03,34,10.50
2007,01,10,03,35,7.80
2007,01,10,03,36,12.80
2007,01,10,03,37,10.00
2007,01,10,03,38,12.40
2007,01,10,03,39,11.50
2007,01,10,03,40,8.80
2007,01,10,03,41,7.90
2007,01,10,03,42,9.30
2007,01,10,03,43,8.90
2007,01,10,03,44,15.60
2007,01,10,03,45,8.10
2007,01,10,03,46,10.50
2007,01,10,03,47,10.80
2007,01,10,03,48,13.00
2007,01,10,03,49,18.40
2007,01,10,03,50,13.40
2007,01,10,03,51,9.30
2007,01,10,03,52,12.10
2007,01,10,03,53,15.10
2007,01,10,03,54,17.60
2007,01,10,03,55,16.80
2007,01,10,03,56,15.60
2007,01,10,03,57,16.90
2007,01,10,03,58,14.20
2007,01,10,03,59,10.70
2007,01,10,04,00,10.90
2007,01,10,04,01,16.90
2007,01,10,04,02,16.10
2007,01,10,04,03,13.80
2007,01,10,04,04,13.00
2007,01,10,04,05,13.00
2007,01,10,04,06,11.30
2007,01,10,04,07,12.40
2007,01,10,04,08,9.20
2007,01,10,04,09,9.90
2007,01,10,04,10,12.70
2007,01,10,04,11,9.10
2007,01,10,04,12,6.70
2007,01,10,04,13,7.70
2007,01,10,04,14,6.90
2007,01,10,04,15,8.80
2007,01,10,04,16,6.40
2007,01,10,04,17,4.40
2007,01,10,04,18,1.70
2007,01,10,04,19,1.10
2007,01,10,04,20,2.20
2007,01,10,04,21,2.20
2007,01,10,04,22,4.50
2007,01,10,04,23,4.50
2007,01,10,04,24,6.30
2007,01,10,04,25,4.40
2007,01,10,04,26,3.80
2007,01,10,04,27,4.30
2007,01,10,04,28,4.80
2007,01,10,04,29,7.20
2007,01,10,04,30,9.90
2007,01,10,04,31,10.30
2007,01,10,04,32,9.30
2007,01,10,04,33,9.10
2007,01,10,04,34,13.20
2007,01,10,04,35,14.50
2007,01,10,04,36,14.50
2007,01,10,04,37,10.40
2007,01,10,04,38,10.70
2007,01,10,04,39,7.10
2007,01,10,04,40,11.20
2007,01,10,04,41,10.90
2007,01,10,04,42,10.00
2007,01,10,04,43,16.90
2007,01,10,04,44,12.20
2007,01,10,04,45,10.90
2007,01,10,04,46,8.60
2007,01,10,04,47,5.50
2007,01,10,04,48,6.10
2007,01,10,04,49,7.50
2007,01,10,04,50,9.00
2007,01,10,04,51,9.20
2007,01,10,04,52,8.30
2007,01,10,04,53,9.90
2007,01,10,04,54,7.80
2007,01,10,04,55,9.20
2007,01,10,04,56,10.80
2007,01,10,04,57,10.10
2007,01,10,04,58,8.90
2007,01,10,04,59,5.10
2007,01,10,05,00,6.00
2007,01,10,05,01,5.70
2007,01,10,05,02,5.30
2007,01,10,05,03,3.30
2007,01,10,05,04,5.60
2007,01,10,05,05,7.00
2007,01,10,05,06,7.90
2007,01,10,05,07,7.10
2007,01,10,05,08,6.20
2007,01,10,05,09,7.20
2007,01,10,05,10,7.10
2007,01,10,05,11,6.30
2007,01,10,05,12,6.90
2007,01,10,05,13,7.50
2007,01,10,05,14,5.60
2007,01,10,05,15,7.10
2007,01,10,05,16,4.90
2007,01,10,05,17,4.70
2007,01,10,05,18,6.80
2007,01,10,05,19,7.60
2007,01,10,05,20,9.50
2007,01,10,05,21,8.90
2007,01,10,05,22,6.90
2007,01,10,05,23,10.30
2007,01,10,05,24,9.00
2007,01,10,05,25,13.60
2007,01,10,05,26,8.00
2007,01,10,05,27,7.80
2007,01,10,05,28,6.50
2007,01,10,05,29,5.00
2007,01,10,05,30,5.70
2007,01,10,05,31,6.90
2007,01,10,05,32,6.70
2007,01,10,05,33,15.50
2007,01,10,05,34,18.60
2007,01,10,05,35,13.20
2007,01,10,05,36,16.90
2007,01,10,05,37,16.90
2007,01,10,05,38,18.90
2007,01,10,05,39,18.50
2007,01,10,05,40,14.30
2007,01,10,05,41,15.90
2007,01,10,05,42,23.10
2007,01,10,05,43,19.80
2007,01,10,05,44,22.40
2007,01,10,05,45,12.00
2007,01,10,05,46,13.70
2007,01,10,05,47,11.40
2007,01,10,05,48,11.50
2007,01,10,05,49,8.30
2007,01,10,05,50,7.20
2007,01,10,05,51,6.40
2007,01,10,05,52,5.50
2007,01,10,05,53,3.60
2007,01,10,05,54,5.70
2007,01,10,05,55,3.90
2007,01,10,05,56,6.50
2007,01,10,05,57,4.90
2007,01,10,05,58,5.70
2007,01,10,05,59,5.70
2007,01,10,06,00,4.20
2007,01,10,06,01,3.60
2007,01,10,06,02,4.70
2007,01,10,06,03,4.20
2007,01,10,06,04,5.50
2007,01,10,06,05,6.80
2007,01,10,06,06,6.20
2007,01,10,06,07,9.10
2007,01,10,06,08,10.60
2007,01,10,06,09,16.20
2007,01,10,06,10,17.00
2007,01,10,06,11,23.60
2007,01,10,06,12,22.70
2007,01,10,06,13,12.50
2007,01,10,06,14,11.00
2007,01,10,06,15,8.00
2007,01,10,06,16,4.50
2007,01,10,06,17,6.60
2007,01,10,06,18,6.80
2007,01,10,06,19,5.30
2007,01,10,06,20,5.40
2007,01,10,06,21,9.40
2007,01,10,06,22,6.10
2007,01,10,06,23,5.30
2007,01,10,06,24,4.90
2007,01,10,06,25,5.90
2007,01,10,06,26,4.40
2007,01,10,06,27,7.20
2007,01,10,06,28,6.60
2007,01,10,06,29,7.30
2007,01,10,06,30,7.60
2007,01,10,06,31,4.50
2007,01,10,06,32,6.60
2007,01,10,06,33,6.40
2007,01,10,06,34,6.40
2007,01,10,06,35,4.80
2007,01,10,06,36,5.00
2007,01,10,06,37,5.20
2007,01,10,06,38,3.30
2007,01,10,06,39,4.50
2007,01,10,06,40,4.40
2007,01,10,06,41,3.10
2007,01,10,06,42,3.00
2007,01,10,06,43,2.80
2007,01,10,06,44,3.30
2007,01,10,06,45,3.70
2007,01,10,06,46,2.90
2007,01,10,06,47,2.50
2007,01,10,06,48,0.70
2007,01,10,06,49,1.00
2007,01,10,06,50,0.40
2007,01,10,06,51,0.00
2007,01,10,06,52,0.00
2007,01,10,06,53,0.30
2007,01,10,06,54,0.10
2007,01,10,06,55,0.10
2007,01,10,06,56,0.50
2007,01,10,06,57,4.50
2007,01,10,06,58,3.60
2007,01,10,06,59,5.20
2007,01,10,07,00,5.00
2007,01,10,07,01,6.60
2007,01,10,07,02,8.80
2007,01,10,07,03,5.80
2007,01,10,07,04,10.10
2007,01,10,07,05,7.50
2007,01,10,07,06,10.40
2007,01,10,07,07,9.90
2007,01,10,07,08,10.90
2007,01,10,07,09,9.60
2007,01,10,07,10,5.70
2007,01,10,07,11,7.30
2007,01,10,07,12,7.10
2007,01,10,07,13,6.00
2007,01,10,07,14,6.80
2007,01,10,07,15,5.40
2007,01,10,07,16,4.60
2007,01,10,07,17,6.50
2007,01,10,07,18,3.80
2007,01,10,07,19,5.40
2007,01,10,07,20,6.30
2007,01,10,07,21,4.60
2007,01,10,07,22,6.70
2007,01,10,07,23,4.40
2007,01,10,07,24,4.50
2007,01,10,07,25,4.70
2007,01,10,07,26,6.80
2007,01,10,07,27,5.60
2007,01,10,07,28,5.70
2007,01,10,07,29,9.10
2007,01,10,07,30,8.00
2007,01,10,07,31,6.10
2007,01,10,07,32,4.40
2007,01,10,07,33,7.60
2007,01,10,07,34,8.30
2007,01,10,07,35,8.70
2007,01,10,07,36,11.60
2007,01,10,07,37,12.30
2007,01,10,07,38,8.80
2007,01,10,07,39,8.30
2007,01,10,07,40,9.80
2007,01,10,07,41,8.70
2007,01,10,07,42,9.00
2007,01,10,07,43,9.50
2007,01,10,07,44,8.10
2007,01,10,07,45,6.90
2007,01,10,07,46,10.80
2007,01,10,07,47,9.00
2007,01,10,07,48,8.00
2007,01,10,07,49,7.40
2007,01,10,07,50,9.00
2007,01,10,07,51,6.20
2007,01,10,07,52,8.00
2007,01,10,07,53,10.50
2007,01,10,07,54,6.40
2007,01,10,07,55,7.30
2007,01,10,07,56,6.80
2007,01,10,07,57,6.10
2007,01,10,07,58,8.80
2007,01,10,07,59,4.70
2007,01,10,08,00,4.90
2007,01,10,08,01,4.90
2007,01,10,08,02,7.10
2007,01,10,08,03,5.50
2007,01,10,08,04,5.80
2007,01,10,08,05,6.80
2007,01,10,08,06,6.80
2007,01,10,08,07,10.60
2007,01,10,08,08,8.90
2007,01,10,08,09,5.90
2007,01,10,08,10,5.00
2007,01,10,08,11,8.90
2007,01,10,08,12,11.20
2007,01,10,08,13,7.00
2007,01,10,08,14,7.60
2007,01,10,08,15,9.60
2007,01,10,08,16,9.80
2007,01,10,08,17,9.20
2007,01,10,08,18,12.50
2007,01,10,08,19,20.90
2007,01,10,08,20,15.60
2007,01,10,08,21,15.40
2007,01,10,08,22,8.50
2007,01,10,08,23,11.50
2007,01,10,08,24,13.10
2007,01,10,08,25,12.70
2007,01,10,08,26,10.00
2007,01,10,08,27,7.10
2007,01,10,08,28,9.90
2007,01,10,08,29,9.20
2007,01,10,08,30,6.20
2007,01,10,08,31,4.80
2007,01,10,08,32,5.70
2007,01,10,08,33,7.80
2007,01,10,08,34,4.50
2007,01,10,08,35,4.50
2007,01,10,08,36,6.30
2007,01,10,08,37,4.50
2007,01,10,08,38,6.90
2007,01,10,08,39,5.40
2007,01,10,08,40,6.00
2007,01,10,08,41,5.50
2007,01,10,08,42,5.90
2007,01,10,08,43,8.10
2007,01,10,08,44,6.50
2007,01,10,08,45,6.00
2007,01,10,08,46,4.20
2007,01,10,08,47,4.10
2007,01,10,08,48,3.60
2007,01,10,08,49,3.70
2007,01,10,08,50,2.90
2007,01,10,08,51,2.20
2007,01,10,08,52,1.70
2007,01,10,08,53,2.40
2007,01,10,08,54,1.60
2007,01,10,08,55,2.00
2007,01,10,08,56,0.30
2007,01,10,08,57,0.00
2007,01,10,08,58,0.00
2007,01,10,08,59,0.00
2007,01,10,09,00,0.00
2007,01,10,09,01,0.00
2007,01,10,09,02,0.00
2007,01,10,09,03,0.00
2007,01,10,09,04,0.00
2007,01,10,09,05,0.00
2007,01,10,09,06,2.20
2007,01,10,09,07,2.30
2007,01,10,09,08,2.20
2007,01,10,09,09,4.30
2007,01,10,09,10,4.10
2007,01,10,09,11,5.60
2007,01,10,09,12,5.00
2007,01,10,09,13,3.10
2007,01,10,09,14,4.70
2007,01,10,09,15,4.50
2007,01,10,09,16,2.40
2007,01,10,09,17,2.30
2007,01,10,09,18,1.40
2007,01,10,09,19,1.80
2007,01,10,09,20,3.10
2007,01,10,09,21,5.20
2007,01,10,09,22,3.30
2007,01,10,09,23,3.50
2007,01,10,09,24,3.50
2007,01,10,09,25,4.20
2007,01,10,09,26,3.80
2007,01,10,09,27,6.10
2007,01,10,09,28,6.30
2007,01,10,09,29,3.10
2007,01,10,09,30,3.20
2007,01,10,09,31,2.80
2007,01,10,09,32,3.20
2007,01,10,09,33,5.50
2007,01,10,09,34,7.50
2007,01,10,09,35,7.70
2007,01,10,09,36,3.80
2007,01,10,09,37,3.80
2007,01,10,09,38,3.50
2007,01,10,09,39,3.80
2007,01,10,09,40,5.40
2007,01,10,09,41,5.40
2007,01,10,09,42,5.20
2007,01,10,09,43,4.90
2007,01,10,09,44,3.20
2007,01,10,09,45,7.00
2007,01,10,09,46,5.00
2007,01,10,09,47,6.10
2007,01,10,09,48,5.40
2007,01,10,09,49,5.70
2007,01,10,09,50,4.50
2007,01,10,09,51,6.50
2007,01,10,09,52,5.90
2007,01,10,09,53,4.20
2007,01,10,09,54,6.70
2007,01,10,09,55,4.80
2007,01,10,09,56,6.10
2007,01,10,09,57,4.70
2007,01,10,09,58,4.30
2007,01,10,09,59,4.40
2007,01,10,10,00,3.10
2007,01,10,10,01,2.20
2007,01,10,10,02,3.80
2007,01,10,10,03,1.00
2007,01,10,10,04,0.10
2007,01,10,10,05,1.30
2007,01,10,10,06,1.80
2007,01,10,10,07,1.60
2007,01,10,10,08,2.60
2007,01,10,10,09,2.00
2007,01,10,10,10,3.00
2007,01,10,10,11,3.00
2007,01,10,10,12,3.20
2007,01,10,10,13,4.50
2007,01,10,10,14,3.90
2007,01,10,10,15,4.60
2007,01,10,10,16,4.90
2007,01,10,10,17,4.10
2007,01,10,10,18,0.70
2007,01,10,10,19,0.20
2007,01,10,10,20,1.40
2007,01,10,10,21,1.70
2007,01,10,10,22,2.20
2007,01,10,10,23,2.50
2007,01,10,10,24,1.70
2007,01,10,10,25,1.00
2007,01,10,10,26,2.80
2007,01,10,10,27,2.20
2007,01,10,10,28,4.90
2007,01,10,10,29,3.60
2007,01,10,10,30,4.10
2007,01,10,10,31,2.50
2007,01,10,10,32,1.10
2007,01,10,10,33,5.60
2007,01,10,10,34,4.10
2007,01,10,10,35,6.00
2007,01,10,10,36,3.10
2007,01,10,10,37,2.40
2007,01,10,10,38,2.90
2007,01,10,10,39,3.10
2007,01,10,10,40,3.00
2007,01,10,10,41,5.20
2007,01,10,10,42,5.80
2007,01,10,10,43,10.50
2007,01,10,10,44,8.80
2007,01,10,10,45,8.50
2007,01,10,10,46,6.00
2007,01,10,10,47,5.00
2007,01,10,10,48,9.40
2007,01,10,10,49,9.00
2007,01,10,10,50,8.30
2007,01,10,10,51,6.20
2007,01,10,10,52,5.80
2007,01,10,10,53,7.10
2007,01,10,10,54,8.10
2007,01,10,10,55,8.10
2007,01,10,10,56,7.40
2007,01,10,10,57,6.30
2007,01,10,10,58,6.10
2007,01,10,10,59,5.00
2007,01,10,11,00,3.60
2007,01,10,11,01,3.80
2007,01,10,11,02,3.50
2007,01,10,11,03,3.60
2007,01,10,11,04,5.30
2007,01,10,11,05,3.60
2007,01,10,11,06,5.00
2007,01,10,11,07,7.50
2007,01,10,11,08,4.00
2007,01,10,11,09,2.50
2007,01,10,11,10,5.00
2007,01,10,11,11,2.90
2007,01,10,11,12,3.60
2007,01,10,11,13,4.50
2007,01,10,11,14,3.30
2007,01,10,11,15,3.40
2007,01,10,11,16,5.00
2007,01,10,11,17,7.40
2007,01,10,11,18,6.20
2007,01,10,11,19,5.10
2007,01,10,11,20,6.10
2007,01,10,11,21,3.90
2007,01,10,11,22,6.20
2007,01,10,11,23,8.50
2007,01,10,11,24,7.50
2007,01,10,11,25,8.10
2007,01,10,11,26,5.00
2007,01,10,11,27,5.90
2007,01,10,11,28,7.00
2007,01,10,11,29,6.20
2007,01,10,11,30,4.50
2007,01,10,11,31,3.20
2007,01,10,11,32,2.70
2007,01,10,11,33,4.20
2007,01,10,11,34,3.20
2007,01,10,11,35,1.60
2007,01,10,11,36,1.50
2007,01,10,11,37,3.40
2007,01,10,11,38,3.20
2007,01,10,11,39,1.80
2007,01,10,11,40,1.40
2007,01,10,11,41,1.10
2007,01,10,11,42,0.20
2007,01,10,11,43,0.00
2007,01,10,11,44,0.00
2007,01,10,11,45,0.00
2007,01,10,11,46,0.10
2007,01,10,11,47,0.00
2007,01,10,11,48,0.00
2007,01,10,11,49,0.00
2007,01,10,11,50,0.00
2007,01,10,11,51,0.00
2007,01,10,11,52,0.00
2007,01,10,11,53,0.00
2007,01,10,11,54,0.00
2007,01,10,11,55,0.00
2007,01,10,11,56,0.00
2007,01,10,11,57,0.00
2007,01,10,11,58,0.00
2007,01,10,11,59,0.00
2007,01,10,12,00,0.00
2007,01,10,12,01,0.00
2007,01,10,12,02,0.00
2007,01,10,12,03,0.00
2007,01,10,12,04,0.00
2007,01,10,12,05,0.10
2007,01,10,12,06,0.00
2007,01,10,12,07,0.00
2007,01,10,12,08,0.00
2007,01,10,12,09,0.00
2007,01,10,12,10,0.00
2007,01,10,12,11,2.40
2007,01,10,12,12,1.60
2007,01,10,12,13,3.30
2007,01,10,12,14,2.10
2007,01,10,12,15,7.10
2007,01,10,12,16,6.40
2007,01,10,12,17,6.40
2007,01,10,12,18,9.20
2007,01,10,12,19,10.10
2007,01,10,12,20,8.40
2007,01,10,12,21,10.70
2007,01,10,12,22,6.30
2007,01,10,12,23,5.00
2007,01,10,12,24,7.20
2007,01,10,12,25,5.60
2007,01,10,12,26,5.60
2007,01,10,12,27,4.90
2007,01,10,12,28,4.30
2007,01,10,12,29,6.20
2007,01,10,12,30,7.10
2007,01,10,12,31,6.80
2007,01,10,12,32,4.90
2007,01,10,12,33,6.80
2007,01,10,12,34,7.30
2007,01,10,12,35,6.30
2007,01,10,12,36,10.30
2007,01,10,12,37,5.80
2007,01,10,12,38,5.40
2007,01,10,12,39,4.30
2007,01,10,12,40,4.30
2007,01,10,12,41,4.90
2007,01,10,12,42,4.50
2007,01,10,12,43,7.00
2007,01,10,12,44,9.70
2007,01,10,12,45,9.60
2007,01,10,12,46,8.10
2007,01,10,12,47,4.10
2007,01,10,12,48,8.10
2007,01,10,12,49,8.10
2007,01,10,12,50,9.70
2007,01,10,12,51,6.40
2007,01,10,12,52,8.30
2007,01,10,12,53,12.80
2007,01,10,12,54,7.70
2007,01,10,12,55,6.60
2007,01,10,12,56,11.20
2007,01,10,12,57,14.50
2007,01,10,12,58,14.10
2007,01,10,12,59,12.10
2007,01,10,13,00,7.60
2007,01,10,13,01,10.10
2007,01,10,13,02,10.90
2007,01,10,13,03,8.70
2007,01,10,13,04,11.60
2007,01,10,13,05,15.50
2007,01,10,13,06,16.80
2007,01,10,13,07,17.40
2007,01,10,13,08,15.40
2007,01,10,13,09,9.30
2007,01,10,13,10,7.50
2007,01,10,13,11,9.40
2007,01,10,13,12,8.70
2007,01,10,13,13,7.80
2007,01,10,13,14,8.80
2007,01,10,13,15,13.30
2007,01,10,13,16,9.50
2007,01,10,13,17,8.00
2007,01,10,13,18,9.60
2007,01,10,13,19,13.60
2007,01,10,13,20,13.50
2007,01,10,13,21,9.30
2007,01,10,13,22,12.90
2007,01,10,13,23,14.10
2007,01,10,13,24,12.20
2007,01,10,13,25,11.90
2007,01,10,13,26,10.60
2007,01,10,13,27,17.90
2007,01,10,13,28,13.70
2007,01,10,13,29,19.30
2007,01,10,13,30,18.10
2007,01,10,13,31,12.10
2007,01,10,13,32,10.20
2007,01,10,13,33,15.40
2007,01,10,13,34,12.10
2007,01,10,13,35,10.80
2007,01,10,13,36,10.80
2007,01,10,13,37,10.70
2007,01,10,13,38,9.40
2007,01,10,13,39,8.40
2007,01,10,13,40,10.30
2007,01,10,13,41,5.20
2007,01,10,13,42,17.00
2007,01,10,13,43,17.20
2007,01,10,13,44,9.50
2007,01,10,13,45,11.30
2007,01,10,13,46,12.60
2007,01,10,13,47,11.90
2007,01,10,13,48,11.80
2007,01,10,13,49,14.60
2007,01,10,13,50,8.60
2007,01,10,13,51,15.40
2007,01,10,13,52,12.70
2007,01,10,13,53,17.40
2007,01,10,13,54,14.50
2007,01,10,13,55,11.70
2007,01,10,13,56,14.20
2007,01,10,13,57,11.30
2007,01,10,13,58,10.20
2007,01,10,13,59,7.80
2007,01,10,14,00,11.20
2007,01,10,14,01,8.70
2007,01,10,14,02,4.40
2007,01,10,14,03,11.80
2007,01,10,14,04,6.60
2007,01,10,14,05,6.70
2007,01,10,14,06,5.80
2007,01,10,14,07,6.80
2007,01,10,14,08,4.30
2007,01,10,14,09,2.30
2007,01,10,14,10,7.70
2007,01,10,14,11,5.80
2007,01,10,14,12,6.40
2007,01,10,14,13,6.50
2007,01,10,14,14,5.10
2007,01,10,14,15,5.20
2007,01,10,14,16,4.80
2007,01,10,14,17,6.70
2007,01,10,14,18,6.40
2007,01,10,14,19,9.10
2007,01,10,14,20,8.90
2007,01,10,14,21,6.90
2007,01,10,14,22,3.90
2007,01,10,14,23,6.20
2007,01,10,14,24,4.70
2007,01,10,14,25,5.50
2007,01,10,14,26,8.30
2007,01,10,14,27,7.00
2007,01,10,14,28,7.50
2007,01,10,14,29,5.60
2007,01,10,14,30,3.30
2007,01,10,14,31,5.00
2007,01,10,14,32,5.30
2007,01,10,14,33,8.00
2007,01,10,14,34,6.00
2007,01,10,14,35,4.60
2007,01,10,14,36,2.60
2007,01,10,14,37,5.00
2007,01,10,14,38,6.40
2007,01,10,14,39,5.40
2007,01,10,14,40,3.60
2007,01,10,14,41,5.70
2007,01,10,14,42,2.80
2007,01,10,14,43,5.00
2007,01,10,14,44,3.10
2007,01,10,14,45,4.30
2007,01,10,14,46,4.20
2007,01,10,14,47,4.00
2007,01,10,14,48,3.80
2007,01,10,14,49,4.30
2007,01,10,14,50,2.30
2007,01,10,14,51,3.50
2007,01,10,14,52,1.70
2007,01,10,14,53,3.10
2007,01,10,14,54,2.70
2007,01,10,14,55,3.00
2007,01,10,14,56,6.90
2007,01,10,14,57,4.80
2007,01,10,14,58,9.30
2007,01,10,14,59,7.70
2007,01,10,15,00,7.00
2007,01,10,15,01,7.80
2007,01,10,15,02,8.40
2007,01,10,15,03,3.40
2007,01,10,15,04,3.20
2007,01,10,15,05,4.80
2007,01,10,15,06,4.80
2007,01,10,15,07,6.10
2007,01,10,15,08,6.20
2007,01,10,15,09,4.40
2007,01,10,15,10,6.00
2007,01,10,15,11,2.90
2007,01,10,15,12,2.90
2007,01,10,15,13,3.70
2007,01,10,15,14,4.30
2007,01,10,15,15,5.70
2007,01,10,15,16,4.30
2007,01,10,15,17,3.70
2007,01,10,15,18,5.10
2007,01,10,15,19,4.60
2007,01,10,15,20,2.00
2007,01,10,15,21,1.60
2007,01,10,15,22,2.60
2007,01,10,15,23,4.40
2007,01,10,15,24,6.40
2007,01,10,15,25,2.30
2007,01,10,15,26,1.70
2007,01,10,15,27,3.10
2007,01,10,15,28,4.10
2007,01,10,15,29,1.80
2007,01,10,15,30,2.00
2007,01,10,15,31,1.80
2007,01,10,15,32,1.60
2007,01,10,15,33,3.80
2007,01,10,15,34,1.30
2007,01,10,15,35,1.30
2007,01,10,15,36,1.30
2007,01,10,15,37,0.70
2007,01,10,15,38,1.90
2007,01,10,15,39,0.20
2007,01,10,15,40,1.50
2007,01,10,15,41,1.30
2007,01,10,15,42,0.80
2007,01,10,15,43,1.00
2007,01,10,15,44,0.90
2007,01,10,15,45,1.50
2007,01,10,15,46,0.50
2007,01,10,15,47,0.60
2007,01,10,15,48,1.20
2007,01,10,15,49,0.60
2007,01,10,15,50,0.70
2007,01,10,15,51,1.00
2007,01,10,15,52,1.10
2007,01,10,15,53,0.90
2007,01,10,15,54,0.80
2007,01,10,15,55,1.60
2007,01,10,15,56,2.00
2007,01,10,15,57,1.20
2007,01,10,15,58,0.00
2007,01,10,15,59,0.00
2007,01,10,16,00,0.50
2007,01,10,16,01,2.50
2007,01,10,16,02,2.20
2007,01,10,16,03,2.60
2007,01,10,16,04,2.90
2007,01,10,16,05,2.00
2007,01,10,16,06,1.90
2007,01,10,16,07,0.00
2007,01,10,16,08,0.30
2007,01,10,16,09,3.60
2007,01,10,16,10,3.40
2007,01,10,16,11,1.90
2007,01,10,16,12,2.60
2007,01,10,16,13,2.10
2007,01,10,16,14,4.10
2007,01,10,16,15,3.90
2007,01,10,16,16,5.00
2007,01,10,16,17,5.10
2007,01,10,16,18,4.00
2007,01,10,16,19,6.00
2007,01,10,16,20,3.70
2007,01,10,16,21,4.90
2007,01,10,16,22,6.00
2007,01,10,16,23,4.20
2007,01,10,16,24,3.50
2007,01,10,16,25,6.00
2007,01,10,16,26,4.40
2007,01,10,16,27,3.90
2007,01,10,16,28,3.70
2007,01,10,16,29,6.00
2007,01,10,16,30,3.70
2007,01,10,16,31,7.10
2007,01,10,16,32,5.30
2007,01,10,16,33,4.60
2007,01,10,16,34,3.20
2007,01,10,16,35,4.00
2007,01,10,16,36,2.10
2007,01,10,16,37,3.60
2007,01,10,16,38,3.20
2007,01,10,16,39,4.30
2007,01,10,16,40,3.20
2007,01,10,16,41,2.60
2007,01,10,16,42,1.50
2007,01,10,16,43,1.80
2007,01,10,16,44,2.20
2007,01,10,16,45,3.30
2007,01,10,16,46,3.20
2007,01,10,16,47,2.50
2007,01,10,16,48,2.90
2007,01,10,16,49,3.10
2007,01,10,16,50,4.30
2007,01,10,16,51,3.80
2007,01,10,16,52,3.40
2007,01,10,16,53,2.60
2007,01,10,16,54,2.80
2007,01,10,16,55,4.00
2007,01,10,16,56,3.30
2007,01,10,16,57,2.90
2007,01,10,16,58,3.40
2007,01,10,16,59,2.80
2007,01,10,17,00,3.40
2007,01,10,17,01,3.40
2007,01,10,17,02,2.30
2007,01,10,17,03,3.80
2007,01,10,17,04,3.10
2007,01,10,17,05,1.10
2007,01,10,17,06,3.10
2007,01,10,17,07,1.60
2007,01,10,17,08,3.20
2007,01,10,17,09,3.30
2007,01,10,17,10,2.20
2007,01,10,17,11,2.40
2007,01,10,17,12,2.50
2007,01,10,17,13,2.40
2007,01,10,17,14,3.10
2007,01,10,17,15,2.70
2007,01,10,17,16,2.40
2007,01,10,17,17,1.60
2007,01,10,17,18,1.60
2007,01,10,17,19,3.50
2007,01,10,17,20,2.90
2007,01,10,17,21,2.80
2007,01,10,17,22,3.40
2007,01,10,17,23,3.40
2007,01,10,17,24,3.60
2007,01,10,17,25,3.70
2007,01,10,17,26,3.70
2007,01,10,17,27,4.50
2007,01,10,17,28,5.00
2007,01,10,17,29,4.60
2007,01,10,17,30,4.70
2007,01,10,17,31,4.60
2007,01,10,17,32,4.50
2007,01,10,17,33,4.00
2007,01,10,17,34,4.80
2007,01,10,17,35,4.20
2007,01,10,17,36,4.40
2007,01,10,17,37,4.40
2007,01,10,17,38,3.80
2007,01,10,17,39,4.00
2007,01,10,17,40,4.20
2007,01,10,17,41,4.60
2007,01,10,17,42,4.60
2007,01,10,17,43,4.20
2007,01,10,17,44,4.80
2007,01,10,17,45,3.50
2007,01,10,17,46,4.70
2007,01,10,17,47,5.00
2007,01,10,17,48,4.50
2007,01,10,17,49,3.80
2007,01,10,17,50,4.20
2007,01,10,17,51,2.80
2007,01,10,17,52,3.90
2007,01,10,17,53,3.90
2007,01,10,17,54,4.10
2007,01,10,17,55,3.70
2007,01,10,17,56,4.20